| time (UTC) | temp F | wind direction | speed knots | gust knots | rain 1hr in | rain 24hr in | rain mn in | humidity % | barometer mb |
| 20260905083529 | 59 | 257 | 3.5 | 9.6 | 0.00 | 0.02 | 0.00 | 85 | 1005.5 |
| 20260905083024 | 59 | 261 | 1.7 | 6.1 | 0.00 | 0.02 | 0.00 | 85 | 1005.5 |
| 20260905082523 | 59 | 251 | 1.7 | 6.1 | 0.00 | 0.02 | 0.00 | 85 | 1005.4 |
| 20260905082023 | 59 | 178 | 2.6 | 8.7 | 0.00 | 0.02 | 0.00 | 86 | 1005.4 |
| 20260905081522 | 59 | 208 | 2.6 | 9.6 | 0.00 | 0.02 | 0.00 | 86 | 1005.4 |
| 20260905081021 | 59 | 182 | 3.5 | 9.6 | 0.00 | 0.02 | 0.00 | 86 | 1005.3 |
| 20260905080521 | 59 | 301 | 1.7 | 8.7 | 0.00 | 0.02 | 0.00 | 87 | 1005.2 |
| 20260905080028 | 58 | 273 | 2.6 | 11.3 | 0.00 | 0.02 | 0.00 | 87 | 1005.2 |
| 20260905075518 | 58 | 223 | 2.6 | 9.6 | 0.00 | 0.02 | 0.00 | 88 | 1005.2 |
| 20260905075018 | 58 | 293 | 2.6 | 9.6 | 0.00 | 0.02 | 0.00 | 88 | 1005.1 |
| 20260905074516 | 58 | 214 | 2.6 | 9.6 | 0.00 | 0.02 | 0.00 | 88 | 1005.1 |
| 20260905074014 | 58 | 270 | 2.6 | 9.6 | 0.00 | 0.02 | 0.00 | 89 | 1005.0 |
| 20260905073514 | 58 | 306 | 1.7 | 8.7 | 0.00 | 0.02 | 0.00 | 90 | 1004.9 |
| 20260905073013 | 57 | 313 | 2.6 | 7.8 | 0.00 | 0.02 | 0.00 | 90 | 1004.9 |
| 20260905072511 | 57 | 245 | 2.6 | 8.7 | 0.00 | 0.02 | 0.00 | 90 | 1004.9 |
| 20260905072010 | 57 | 290 | 0.9 | 8.7 | 0.00 | 0.02 | 0.00 | 91 | 1004.9 |
| 20260905071509 | 56 | 266 | 2.6 | 8.7 | 0.00 | 0.02 | 0.00 | 92 | 1004.9 |
| 20260905071011 | 56 | 287 | 1.7 | 8.7 | 0.00 | 0.02 | 0.00 | 92 | 1005.0 |
| 20260905070508 | 56 | 285 | 2.6 | 8.7 | 0.00 | 0.02 | 0.00 | 92 | 1004.8 |
| 20260905070019 | 56 | 39 | 0.9 | 7.0 | 0.00 | 0.02 | 0.00 | 92 | 1004.9 |
| 20260905065508 | 56 | 331 | 2.6 | 7.0 | 0.00 | 0.02 | 0.00 | 92 | 1004.8 |
| 20260905065010 | 56 | 166 | 0.9 | 7.0 | 0.00 | 0.02 | 0.00 | 92 | 1004.8 |
| 20260905064520 | 56 | 184 | 1.7 | 7.0 | 0.00 | 0.02 | 0.00 | 93 | 1004.8 |
| 20260905064005 | 56 | 266 | 1.7 | 9.6 | 0.00 | 0.02 | 0.00 | 93 | 1004.7 |
| 20260905063504 | 56 | 268 | 2.6 | 9.6 | 0.00 | 0.02 | 0.00 | 94 | 1004.7 |
| 20260905063004 | 55 | 215 | 0.9 | 7.0 | 0.00 | 0.02 | 0.00 | 94 | 1004.7 |
| 20260905062504 | 55 | 276 | 2.6 | 7.0 | 0.00 | 0.02 | 0.00 | 94 | 1004.7 |
| 20260905062000 | 55 | 281 | 1.7 | 7.0 | 0.00 | 0.02 | 0.00 | 95 | 1004.6 |
| 20260905061601 | 55 | 228 | 1.7 | 6.1 | 0.00 | 0.02 | 0.00 | 95 | 1004.7 |
| 20260905061058 | 55 | 257 | 1.7 | 6.1 | 0.00 | 0.02 | 0.00 | 95 | 1004.6 |
| 20260905060557 | 54 | 204 | 1.7 | 5.2 | 0.00 | 0.02 | 0.00 | 96 | 1004.6 |
| 20260905060058 | 54 | 194 | 1.7 | 4.3 | 0.00 | 0.02 | 0.00 | 95 | 1004.5 |
| 20260905055558 | 54 | 9 | 0.9 | 6.1 | 0.00 | 0.02 | 0.00 | 96 | 1004.5 |
| 20260905055057 | 53 | 336 | 0.9 | 6.1 | 0.00 | 0.02 | 0.00 | 95 | 1004.5 |
| 20260905054556 | 53 | 311 | 0.9 | 5.2 | 0.00 | 0.02 | 0.00 | 95 | 1004.4 |
| 20260905054056 | 53 | 281 | 0.9 | 6.1 | 0.00 | 0.02 | 0.00 | 95 | 1004.5 |
| 20260905053553 | 53 | 187 | 0.9 | 4.3 | 0.00 | 0.02 | 0.00 | 96 | 1004.4 |
| 20260905053053 | 53 | 254 | 1.7 | 4.3 | 0.00 | 0.02 | 0.00 | 96 | 1004.3 |
| 20260905052551 | 53 | 263 | 1.7 | 6.1 | 0.00 | 0.02 | 0.00 | 96 | 1004.3 |
| 20260905052051 | 53 | 140 | 1.7 | 8.7 | 0.00 | 0.02 | 0.00 | 96 | 1004.3 |
| 20260905051550 | 53 | 273 | 2.6 | 8.7 | 0.00 | 0.02 | 0.00 | 96 | 1004.2 |
| 20260905051049 | 53 | 311 | 2.6 | 7.0 | 0.00 | 0.02 | 0.00 | 96 | 1004.1 |
| 20260905050548 | 53 | 183 | 0.9 | 5.2 | 0.00 | 0.02 | 0.00 | 96 | 1004.1 |
| 20260905050054 | 53 | 299 | 1.7 | 5.2 | 0.00 | 0.02 | 0.00 | 96 | 1004.0 |
| 20260905045545 | 52 | 226 | 0.9 | 6.1 | 0.00 | 0.02 | 0.00 | 96 | 1004.1 |
| 20260905045045 | 52 | 275 | 0.9 | 6.1 | 0.00 | 0.02 | 0.00 | 96 | 1004.0 |
| 20260905044544 | 52 | 193 | 0.9 | 3.5 | 0.00 | 0.02 | 0.00 | 96 | 1003.9 |
| 20260905044045 | 52 | 212 | 0.9 | 3.5 | 0.00 | 0.02 | 0.00 | 96 | 1003.9 |
| 20260905043546 | 52 | 240 | 0.9 | 6.1 | 0.00 | 0.02 | 0.00 | 96 | 1003.8 |
| 20260905043041 | 52 | 305 | 1.7 | 6.1 | 0.00 | 0.02 | 0.00 | 96 | 1003.7 |
| 20260905042539 | 52 | 292 | 0.9 | 3.5 | 0.00 | 0.02 | 0.00 | 96 | 1003.7 |
| 20260905042039 | 53 | 327 | 0.9 | 5.2 | 0.00 | 0.02 | 0.00 | 96 | 1003.7 |
| 20260905041539 | 53 | 273 | 1.7 | 5.2 | 0.00 | 0.02 | 0.00 | 95 | 1003.6 |
| 20260905041038 | 53 | 263 | 0.9 | 6.1 | 0.00 | 0.02 | 0.00 | 96 | 1003.6 |
| 20260905040539 | 53 | 288 | 1.7 | 9.6 | 0.00 | 0.02 | 0.00 | 95 | 1003.6 |
| 20260905040038 | 53 | 171 | 2.6 | 9.6 | 0.00 | 0.02 | 0.00 | 95 | 1003.5 |
| 20260905035536 | 53 | 269 | 1.7 | 5.2 | 0.00 | 0.02 | 0.00 | 95 | 1003.5 |
| 20260905035036 | 53 | 213 | 0.9 | 3.5 | 0.00 | 0.02 | 0.00 | 95 | 1003.5 |
| 20260905034537 | 53 | 257 | 1.7 | 3.5 | 0.00 | 0.02 | 0.00 | 95 | 1003.4 |
| 20260905034039 | 53 | 303 | 0.9 | 4.3 | 0.00 | 0.02 | 0.00 | 95 | 1003.4 |
| 20260905033534 | 53 | 18 | 0.9 | 6.1 | 0.00 | 0.02 | 0.00 | 95 | 1003.3 |
| 20260905033034 | 53 | 209 | 0.9 | 6.1 | 0.00 | 0.02 | 0.00 | 95 | 1003.3 |
| 20260905032533 | 53 | 309 | 0.9 | 6.1 | 0.00 | 0.02 | 0.00 | 95 | 1003.2 |
| 20260905032032 | 53 | 248 | 0.9 | 6.1 | 0.00 | 0.02 | 0.00 | 95 | 1003.2 |
| 20260905031535 | 53 | 262 | 1.7 | 6.1 | 0.00 | 0.02 | 0.00 | 95 | 1003.1 |
| 20260905031031 | 53 | 219 | 0.9 | 6.1 | 0.00 | 0.02 | 0.00 | 95 | 1003.1 |
| 20260905030531 | 53 | 272 | 0.9 | 6.1 | 0.00 | 0.02 | 0.00 | 95 | 1003.0 |
| 20260905030031 | 53 | 117 | 0.9 | 6.1 | 0.00 | 0.02 | 0.00 | 95 | 1002.9 |
| 20260905025530 | 54 | 268 | 0.9 | 6.1 | 0.00 | 0.02 | 0.00 | 95 | 1003.0 |
| 20260905025032 | 54 | 277 | 1.7 | 10.4 | 0.00 | 0.02 | 0.00 | 95 | 1002.9 |
| 20260905024530 | 53 | 286 | 1.7 | 10.4 | 0.00 | 0.02 | 0.00 | 95 | 1002.9 |
| 20260905024029 | 53 | 256 | 0.9 | 7.8 | 0.00 | 0.02 | 0.00 | 95 | 1002.9 |
| 20260905023529 | 53 | 263 | 1.7 | 7.8 | 0.00 | 0.02 | 0.00 | 95 | 1003.0 |
| 20260905023027 | 53 | 215 | 0.9 | 7.0 | 0.00 | 0.02 | 0.00 | 95 | 1002.9 |
| 20260905022526 | 53 | 328 | 1.7 | 7.0 | 0.00 | 0.02 | 0.00 | 95 | 1002.8 |
| 20260905022026 | 53 | 338 | 0.9 | 5.2 | 0.00 | 0.02 | 0.00 | 95 | 1002.7 |
| 20260905021536 | 53 | 226 | 1.7 | 4.3 | 0.00 | 0.02 | 0.00 | 95 | 1002.6 |
| 20260905021024 | 53 | 327 | 0.9 | 4.3 | 0.00 | 0.02 | 0.00 | 95 | 1002.6 |
| 20260905020524 | 53 | 307 | 1.7 | 5.2 | 0.00 | 0.02 | 0.00 | 95 | 1002.6 |
| 20260905020027 | 53 | 188 | 0.9 | 7.0 | 0.00 | 0.02 | 0.00 | 95 | 1002.5 |
| 20260905015523 | 53 | 272 | 1.7 | 7.0 | 0.00 | 0.02 | 0.00 | 95 | 1002.5 |
| 20260905015023 | 53 | 192 | 0.9 | 6.1 | 0.00 | 0.02 | 0.00 | 95 | 1002.5 |
| 20260905014521 | 53 | 159 | 0.9 | 8.7 | 0.00 | 0.02 | 0.00 | 95 | 1002.4 |
| 20260905014021 | 54 | 298 | 1.7 | 8.7 | 0.00 | 0.02 | 0.00 | 95 | 1002.4 |
| 20260905013524 | 54 | 198 | 1.7 | 8.7 | 0.00 | 0.02 | 0.00 | 96 | 1002.3 |
| 20260905013024 | 54 | 238 | 3.5 | 8.7 | 0.00 | 0.02 | 0.00 | 95 | 1002.3 |
| 20260905012520 | 54 | 131 | 1.7 | 5.2 | 0.00 | 0.02 | 0.00 | 96 | 1002.2 |
| 20260905012019 | 54 | 194 | 0.9 | 7.0 | 0.00 | 0.02 | 0.00 | 96 | 1002.2 |
| 20260905011519 | 54 | 284 | 2.6 | 7.0 | 0.00 | 0.02 | 0.00 | 96 | 1002.2 |
| 20260905011019 | 54 | 275 | 0.9 | 7.0 | 0.00 | 0.02 | 0.00 | 96 | 1002.2 |
| 20260905010518 | 54 | 192 | 1.7 | 7.0 | 0.00 | 0.02 | 0.00 | 96 | 1002.1 |
| 20260905010023 | 54 | 277 | 1.7 | 7.8 | 0.00 | 0.02 | 0.00 | 96 | 1002.2 |
| 20260905005516 | 54 | 172 | 0.9 | 7.8 | 0.00 | 0.02 | 0.00 | 96 | 1002.1 |
| 20260905005017 | 54 | 286 | 0.9 | 6.1 | 0.00 | 0.02 | 0.00 | 96 | 1002.1 |
| 20260905004515 | 54 | 296 | 0.9 | 8.7 | 0.00 | 0.02 | 0.00 | 96 | 1002.0 |
| 20260905004015 | 54 | 190 | 2.6 | 8.7 | 0.00 | 0.02 | 0.00 | 96 | 1001.9 |
| 20260905003517 | 54 | 258 | 1.7 | 7.0 | 0.00 | 0.02 | 0.00 | 96 | 1001.9 |
| 20260905003015 | 54 | 305 | 1.7 | 6.1 | 0.00 | 0.02 | 0.00 | 96 | 1001.9 |
| 20260905002512 | 54 | 323 | 1.7 | 6.1 | 0.00 | 0.02 | 0.00 | 96 | 1001.8 |
| 20260905002013 | 54 | 294 | 1.7 | 7.0 | 0.00 | 0.02 | 0.00 | 96 | 1001.8 |
| 20260905001512 | 54 | 300 | 1.7 | 7.0 | 0.00 | 0.02 | 0.00 | 96 | 1001.7 |
| 20260905001011 | 54 | 139 | 0.9 | 4.3 | 0.00 | 0.02 | 0.00 | 96 | 1001.7 |
| 20260905000511 | 54 | 270 | 1.7 | 7.8 | 0.00 | 0.02 | 0.00 | 96 | 1001.6 |
| 20260905000014 | 54 | 286 | 1.7 | 7.8 | 0.00 | 0.02 | 0.00 | 96 | 1001.6 |
| 20260904235510 | 54 | 236 | 1.7 | 6.1 | 0.00 | 0.02 | 0.00 | 96 | 1001.6 |
| 20260904235009 | 54 | 174 | 0.9 | 6.1 | 0.00 | 0.02 | 0.00 | 96 | 1001.5 |
| 20260904234508 | 54 | 136 | 0.9 | 4.3 | 0.00 | 0.02 | 0.00 | 96 | 1001.5 |
| 20260904234009 | 54 | 205 | 0.0 | 5.2 | 0.00 | 0.02 | 0.00 | 96 | 1001.4 |
| 20260904233508 | 54 | 314 | 0.9 | 7.0 | 0.00 | 0.02 | 0.00 | 96 | 1001.4 |
| 20260904233008 | 54 | 225 | 1.7 | 7.0 | 0.00 | 0.02 | 0.00 | 96 | 1001.3 |
| 20260904232506 | 54 | 200 | 0.9 | 7.0 | 0.00 | 0.02 | 0.00 | 96 | 1001.4 |
| 20260904232008 | 54 | 252 | 1.7 | 7.8 | 0.00 | 0.02 | 0.00 | 96 | 1001.3 |
| 20260904231506 | 54 | 320 | 0.0 | 4.3 | 0.00 | 0.02 | 0.00 | 95 | 1001.3 |
| 20260904231005 | 54 | 299 | 0.9 | 7.0 | 0.00 | 0.02 | 0.00 | 95 | 1001.3 |
| 20260904230506 | 54 | 221 | 0.9 | 3.5 | 0.00 | 0.02 | 0.00 | 95 | 1001.3 |
| 20260904230005 | 54 | 299 | 0.9 | 3.5 | 0.00 | 0.02 | 0.00 | 95 | 1001.3 |
| 20260904225503 | 54 | 226 | 0.0 | 2.6 | 0.00 | 0.02 | 0.00 | 95 | 1001.2 |
| 20260904225006 | 54 | 265 | 0.0 | 3.5 | 0.00 | 0.02 | 0.00 | 95 | 1001.2 |
| 20260904224503 | 54 | 257 | 0.0 | 4.3 | 0.00 | 0.02 | 0.00 | 95 | 1001.2 |
| 20260904224003 | 54 | 287 | 0.9 | 4.3 | 0.00 | 0.02 | 0.00 | 95 | 1001.1 |
| 20260904223502 | 54 | 228 | 0.9 | 3.5 | 0.00 | 0.02 | 0.00 | 95 | 1001.0 |
| 20260904223002 | 54 | 197 | 0.9 | 2.6 | 0.00 | 0.02 | 0.00 | 95 | 1000.9 |
| 20260904222503 | 54 | 244 | 0.0 | 5.2 | 0.00 | 0.02 | 0.00 | 95 | 1000.9 |
| 20260904222100 | 54 | 193 | 1.7 | 6.1 | 0.00 | 0.02 | 0.00 | 95 | 1001.0 |
| 20260904221604 | 54 | 284 | 1.7 | 3.5 | 0.00 | 0.02 | 0.00 | 95 | 1001.0 |
| 20260904221100 | 54 | 248 | 0.9 | 5.2 | 0.00 | 0.02 | 0.00 | 95 | 1000.9 |
| 20260904220600 | 54 | 216 | 1.7 | 4.3 | 0.00 | 0.02 | 0.00 | 95 | 1001.0 |
| 20260904220110 | 54 | 243 | 0.9 | 6.1 | 0.00 | 0.02 | 0.00 | 95 | 1000.9 |
| 20260904215600 | 54 | 214 | 1.7 | 6.1 | 0.00 | 0.02 | 0.02 | 95 | 1000.9 |
| 20260904215101 | 54 | 196 | 1.7 | 4.3 | 0.00 | 0.02 | 0.02 | 95 | 1000.8 |
| 20260904214558 | 54 | 252 | 0.0 | 7.8 | 0.00 | 0.02 | 0.02 | 95 | 1000.9 |
| 20260904214058 | 54 | 252 | 1.7 | 7.8 | 0.00 | 0.02 | 0.02 | 95 | 1000.8 |
| 20260904213557 | 54 | 118 | 1.7 | 7.0 | 0.00 | 0.02 | 0.02 | 95 | 1000.7 |
| 20260904213101 | 54 | 238 | 0.9 | 5.2 | 0.00 | 0.02 | 0.02 | 95 | 1000.6 |
| 20260904212556 | 54 | 281 | 1.7 | 7.0 | 0.00 | 0.02 | 0.02 | 95 | 1000.6 |
| 20260904212055 | 54 | 265 | 1.7 | 7.0 | 0.00 | 0.02 | 0.02 | 95 | 1000.5 |
| 20260904211557 | 54 | 190 | 1.7 | 7.0 | 0.00 | 0.02 | 0.02 | 95 | 1000.4 |
| 20260904211054 | 54 | 185 | 0.9 | 7.0 | 0.00 | 0.02 | 0.02 | 95 | 1000.4 |
| 20260904210554 | 54 | 249 | 1.7 | 7.0 | 0.00 | 0.02 | 0.02 | 95 | 1000.3 |
| 20260904210059 | 54 | 198 | 1.7 | 8.7 | 0.00 | 0.02 | 0.02 | 95 | 1000.3 |
| 20260904205553 | 54 | 294 | 2.6 | 8.7 | 0.00 | 0.03 | 0.02 | 95 | 1000.2 |
| 20260904205052 | 54 | 288 | 1.7 | 7.8 | 0.00 | 0.03 | 0.02 | 95 | 1000.1 |
| 20260904204553 | 55 | 244 | 1.7 | 6.1 | 0.00 | 0.03 | 0.02 | 95 | 1000.1 |
| 20260904204051 | 55 | 345 | 2.6 | 9.6 | 0.00 | 0.03 | 0.02 | 95 | 1000.0 |
| 20260904203554 | 55 | 134 | 3.5 | 9.6 | 0.00 | 0.03 | 0.02 | 95 | 999.9 |
| 20260904203051 | 55 | 294 | 0.9 | 6.1 | 0.00 | 0.03 | 0.02 | 95 | 999.9 |
| 20260904202550 | 55 | 301 | 1.7 | 7.8 | 0.00 | 0.03 | 0.02 | 95 | 999.9 |
| 20260904202049 | 55 | 290 | 1.7 | 7.8 | 0.00 | 0.03 | 0.02 | 95 | 999.9 |
| 20260904201552 | 55 | 329 | 1.7 | 8.7 | 0.00 | 0.03 | 0.02 | 95 | 999.8 |
| 20260904201048 | 55 | 171 | 1.7 | 8.7 | 0.00 | 0.03 | 0.02 | 95 | 999.6 |
| 20260904200548 | 55 | 240 | 1.7 | 7.0 | 0.00 | 0.03 | 0.02 | 95 | 999.6 |
| 20260904200109 | 55 | 247 | 1.7 | 8.7 | 0.00 | 0.03 | 0.02 | 95 | 999.6 |
| 20260904195546 | 56 | 159 | 1.7 | 9.6 | 0.00 | 0.03 | 0.02 | 95 | 999.7 |
| 20260904195049 | 56 | 325 | 3.5 | 9.6 | 0.00 | 0.03 | 0.02 | 95 | 999.6 |
| 20260904194628 | 56 | 209 | 2.6 | 7.8 | 0.00 | 0.03 | 0.02 | 95 | 999.5 |
| 20260904194045 | 56 | 342 | 1.7 | 8.7 | 0.01 | 0.03 | 0.02 | 95 | 999.5 |
| 20260904193545 | 56 | 294 | 1.7 | 9.6 | 0.01 | 0.03 | 0.02 | 95 | 999.5 |
| 20260904193045 | 56 | 259 | 1.7 | 11.3 | 0.01 | 0.03 | 0.02 | 95 | 999.5 |
| 20260904192544 | 56 | 355 | 2.6 | 11.3 | 0.01 | 0.03 | 0.02 | 95 | 999.6 |
| 20260904192045 | 56 | 290 | 1.7 | 7.8 | 0.01 | 0.03 | 0.02 | 95 | 999.5 |
| 20260904191544 | 57 | 202 | 1.7 | 8.7 | 0.01 | 0.03 | 0.02 | 95 | 999.5 |
| 20260904191044 | 57 | 298 | 2.6 | 8.7 | 0.01 | 0.03 | 0.02 | 96 | 999.5 |
| 20260904190544 | 57 | 302 | 0.9 | 7.8 | 0.01 | 0.03 | 0.02 | 96 | 999.4 |
| 20260904190047 | 57 | 332 | 0.9 | 5.2 | 0.01 | 0.03 | 0.02 | 96 | 999.4 |
| 20260904185543 | 57 | 292 | 1.7 | 4.3 | 0.01 | 0.03 | 0.02 | 95 | 999.3 |
| 20260904185043 | 57 | 298 | 0.0 | 2.6 | 0.01 | 0.03 | 0.02 | 95 | 999.2 |
| 20260904184551 | 57 | 213 | 0.0 | 3.5 | 0.01 | 0.03 | 0.02 | 95 | 999.1 |
| 20260904184043 | 57 | 163 | 0.9 | 3.5 | 0.00 | 0.02 | 0.02 | 95 | 999.1 |
| 20260904183544 | 57 | 209 | 0.0 | 2.6 | 0.00 | 0.02 | 0.02 | 95 | 999.0 |
| 20260904183043 | 57 | 257 | 0.0 | 3.5 | 0.00 | 0.02 | 0.02 | 95 | 999.0 |
| 20260904182541 | 57 | 190 | 0.9 | 4.3 | 0.00 | 0.02 | 0.02 | 95 | 999.0 |
| 20260904182041 | 57 | 265 | 0.9 | 4.3 | 0.00 | 0.02 | 0.02 | 94 | 999.0 |
| 20260904181550 | 58 | 315 | 0.9 | 5.2 | 0.00 | 0.02 | 0.02 | 94 | 999.1 |
| 20260904181042 | 58 | 246 | 0.9 | 5.2 | 0.00 | 0.02 | 0.02 | 94 | 999.1 |
| 20260904180541 | 58 | 248 | 0.9 | 4.3 | 0.00 | 0.02 | 0.02 | 94 | 999.0 |
| 20260904180043 | 58 | 241 | 0.9 | 4.3 | 0.00 | 0.02 | 0.02 | 94 | 999.1 |
| 20260904175544 | 58 | 349 | 0.0 | 4.3 | 0.00 | 0.02 | 0.02 | 93 | 999.0 |
| 20260904175041 | 58 | 175 | 0.9 | 9.6 | 0.00 | 0.02 | 0.02 | 93 | 999.1 |
| 20260904174541 | 59 | 235 | 2.6 | 9.6 | 0.00 | 0.02 | 0.02 | 92 | 999.1 |
| 20260904174041 | 59 | 198 | 0.9 | 7.8 | 0.00 | 0.02 | 0.02 | 92 | 999.1 |
| 20260904173540 | 59 | 279 | 0.9 | 7.0 | 0.00 | 0.02 | 0.02 | 91 | 999.1 |
| 20260904173058 | 59 | 184 | 0.0 | 5.2 | 0.00 | 0.02 | 0.02 | 90 | 999.0 |
| 20260904172539 | 59 | 190 | 1.7 | 7.0 | 0.00 | 0.02 | 0.02 | 90 | 998.9 |
| 20260904172040 | 60 | 284 | 1.7 | 7.8 | 0.00 | 0.02 | 0.02 | 89 | 998.8 |
| 20260904171542 | 60 | 196 | 0.0 | 8.7 | 0.00 | 0.02 | 0.02 | 88 | 998.6 |
| 20260904171038 | 60 | 285 | 0.9 | 6.1 | 0.00 | 0.02 | 0.02 | 88 | 998.6 |
| 20260904170538 | 60 | 300 | 0.9 | 11.3 | 0.00 | 0.02 | 0.02 | 88 | 998.6 |
| 20260904170041 | 61 | 214 | 1.7 | 5.2 | 0.00 | 0.02 | 0.02 | 88 | 998.6 |
| 20260904165541 | 61 | 263 | 0.0 | 2.6 | 0.00 | 0.02 | 0.02 | 88 | 998.5 |
| 20260904165039 | 61 | 254 | 0.0 | 4.3 | 0.00 | 0.02 | 0.02 | 88 | 998.5 |
| 20260904164538 | 62 | 273 | 0.9 | 4.3 | 0.00 | 0.02 | 0.02 | 88 | 998.5 |
| 20260904164037 | 62 | 38 | 0.9 | 5.2 | 0.00 | 0.02 | 0.02 | 89 | 998.6 |
| 20260904163537 | 62 | 250 | 0.0 | 1.7 | 0.00 | 0.02 | 0.02 | 89 | 998.6 |
| 20260904163038 | 63 | 315 | 0.0 | 1.7 | 0.00 | 0.02 | 0.02 | 89 | 998.6 |
| 20260904162537 | 62 | 295 | 0.0 | 1.7 | 0.00 | 0.02 | 0.02 | 89 | 998.6 |
| 20260904162036 | 62 | 295 | 0.0 | 2.6 | 0.00 | 0.02 | 0.02 | 88 | 998.6 |
| 20260904161544 | 62 | 295 | 0.0 | 3.5 | 0.00 | 0.02 | 0.02 | 88 | 998.5 |
| 20260904161036 | 62 | 162 | 0.9 | 3.5 | 0.00 | 0.02 | 0.02 | 88 | 998.7 |
| 20260904160539 | 62 | 255 | 0.0 | 1.7 | 0.00 | 0.02 | 0.02 | 88 | 998.7 |
| 20260904160039 | 62 | 265 | 0.0 | 2.6 | 0.00 | 0.02 | 0.02 | 88 | 998.7 |
| 20260904155535 | 62 | 265 | 0.0 | 5.2 | 0.00 | 0.02 | 0.02 | 87 | 998.7 |
| 20260904155037 | 62 | 279 | 0.0 | 5.2 | 0.00 | 0.02 | 0.02 | 87 | 998.7 |
| 20260904154535 | 62 | 290 | 0.9 | 3.5 | 0.00 | 0.02 | 0.02 | 87 | 998.7 |
| 20260904154035 | 63 | 284 | 0.9 | 3.5 | 0.00 | 0.02 | 0.02 | 88 | 998.6 |
| 20260904153536 | 63 | 288 | 0.0 | 6.1 | 0.00 | 0.02 | 0.02 | 88 | 998.6 |
| 20260904153038 | 63 | 292 | 1.7 | 6.1 | 0.00 | 0.02 | 0.02 | 87 | 998.7 |
| 20260904152535 | 63 | 178 | 1.7 | 7.0 | 0.00 | 0.02 | 0.02 | 88 | 998.7 |
| 20260904152032 | 63 | 279 | 1.7 | 7.0 | 0.00 | 0.02 | 0.02 | 88 | 998.7 |
| 20260904151541 | 63 | 277 | 0.9 | 5.2 | 0.00 | 0.02 | 0.02 | 90 | 998.8 |
| 20260904151033 | 62 | 186 | 0.9 | 3.5 | 0.01 | 0.02 | 0.02 | 89 | 998.7 |
| 20260904150530 | 62 | 282 | 0.9 | 4.3 | 0.01 | 0.02 | 0.02 | 91 | 998.7 |
| 20260904150034 | 62 | 292 | 0.9 | 4.3 | 0.01 | 0.02 | 0.02 | 91 | 998.7 |
| 20260904145529 | 62 | 309 | 0.9 | 5.2 | 0.01 | 0.02 | 0.02 | 91 | 998.7 |
| 20260904145028 | 62 | 286 | 0.9 | 5.2 | 0.01 | 0.02 | 0.02 | 92 | 998.9 |
| 20260904144527 | 61 | 297 | 0.9 | 3.5 | 0.01 | 0.02 | 0.02 | 92 | 998.8 |
| 20260904144028 | 61 | 261 | 1.7 | 8.7 | 0.01 | 0.02 | 0.02 | 92 | 998.8 |
| 20260904143527 | 62 | 275 | 0.9 | 8.7 | 0.01 | 0.02 | 0.02 | 93 | 998.8 |
| 20260904143027 | 61 | 265 | 0.9 | 6.1 | 0.01 | 0.02 | 0.02 | 93 | 998.9 |
| 20260904142528 | 61 | 341 | 0.9 | 6.1 | 0.01 | 0.02 | 0.02 | 94 | 998.8 |
| 20260904142025 | 61 | 281 | 0.9 | 6.1 | 0.01 | 0.02 | 0.02 | 95 | 998.8 |
| 20260904141525 | 61 | 258 | 0.9 | 4.3 | 0.00 | 0.02 | 0.01 | 96 | 998.8 |
| 20260904141026 | 61 | 299 | 1.7 | 4.3 | 0.00 | 0.02 | 0.01 | 95 | 998.8 |
| 20260904140522 | 60 | 242 | 1.7 | 5.2 | 0.00 | 0.02 | 0.01 | 95 | 999.0 |
| 20260904140021 | 60 | 300 | 0.0 | 5.2 | 0.00 | 0.02 | 0.01 | 95 | 999.1 |
| 20260904135522 | 60 | 232 | 0.9 | 5.2 | 0.00 | 0.02 | 0.01 | 95 | 999.2 |
| 20260904135022 | 60 | 202 | 0.9 | 6.1 | 0.00 | 0.02 | 0.01 | 96 | 999.2 |
| 20260904134521 | 60 | 206 | 0.9 | 7.8 | 0.00 | 0.02 | 0.01 | 96 | 999.2 |
| 20260904134019 | 60 | 310 | 2.6 | 7.8 | 0.00 | 0.02 | 0.01 | 96 | 999.3 |
| 20260904133519 | 60 | 182 | 0.9 | 6.1 | 0.00 | 0.02 | 0.01 | 96 | 999.3 |
| 20260904133023 | 60 | 319 | 1.7 | 6.1 | 0.00 | 0.02 | 0.01 | 96 | 999.3 |
| 20260904132518 | 60 | 270 | 1.7 | 4.3 | 0.00 | 0.02 | 0.01 | 96 | 999.3 |
| 20260904132016 | 60 | 201 | 0.9 | 4.3 | 0.00 | 0.02 | 0.01 | 96 | 999.3 |
| 20260904131515 | 59 | 269 | 0.9 | 6.1 | 0.00 | 0.02 | 0.01 | 96 | 999.2 |
| 20260904131015 | 59 | 265 | 0.9 | 4.3 | 0.00 | 0.02 | 0.01 | 96 | 999.2 |
| 20260904130516 | 59 | 270 | 0.9 | 4.3 | 0.00 | 0.02 | 0.01 | 96 | 999.4 |
| 20260904130015 | 59 | 234 | 0.9 | 5.2 | 0.00 | 0.02 | 0.01 | 95 | 999.5 |
| 20260904125515 | 59 | 190 | 1.7 | 5.2 | 0.00 | 0.02 | 0.01 | 95 | 999.5 |
| 20260904125015 | 59 | 251 | 0.9 | 7.0 | 0.00 | 0.02 | 0.01 | 96 | 999.5 |
| 20260904124514 | 60 | 291 | 1.7 | 7.0 | 0.00 | 0.02 | 0.01 | 96 | 999.4 |
| 20260904124013 | 60 | 311 | 0.9 | 7.8 | 0.00 | 0.02 | 0.01 | 96 | 999.2 |
| 20260904123517 | 60 | 236 | 0.9 | 7.0 | 0.00 | 0.02 | 0.01 | 96 | 999.2 |
| 20260904123014 | 60 | 269 | 1.7 | 7.8 | 0.00 | 0.02 | 0.01 | 96 | 999.3 |
| 20260904122515 | 60 | 290 | 2.6 | 7.8 | 0.00 | 0.02 | 0.01 | 96 | 999.3 |
| 20260904122015 | 60 | 238 | 0.9 | 5.2 | 0.00 | 0.02 | 0.01 | 96 | 999.2 |
| 20260904121511 | 60 | 241 | 0.9 | 3.5 | 0.00 | 0.02 | 0.01 | 96 | 999.3 |
| 20260904121013 | 60 | 221 | 0.9 | 4.3 | 0.00 | 0.02 | 0.01 | 96 | 999.4 |
| 20260904120509 | 59 | 228 | 0.9 | 5.2 | 0.00 | 0.02 | 0.01 | 95 | 999.4 |
| 20260904120012 | 60 | 195 | 1.7 | 5.2 | 0.00 | 0.02 | 0.01 | 95 | 999.4 |
| 20260904115508 | 60 | 225 | 0.9 | 4.3 | 0.00 | 0.02 | 0.01 | 95 | 999.5 |
| 20260904115007 | 60 | 289 | 0.9 | 6.1 | 0.00 | 0.02 | 0.01 | 95 | 999.6 |
| 20260904114507 | 60 | 183 | 1.7 | 6.1 | 0.00 | 0.02 | 0.01 | 95 | 999.7 |
| 20260904114007 | 60 | 166 | 0.9 | 4.3 | 0.00 | 0.02 | 0.01 | 95 | 999.7 |
| 20260904113506 | 60 | 239 | 0.9 | 5.2 | 0.00 | 0.02 | 0.01 | 95 | 999.6 |
| 20260904113019 | 60 | 181 | 1.7 | 5.2 | 0.00 | 0.02 | 0.01 | 95 | 999.8 |
| 20260904112508 | 60 | 236 | 0.9 | 3.5 | 0.00 | 0.02 | 0.01 | 95 | 999.8 |
| 20260904112004 | 60 | 294 | 0.0 | 3.5 | 0.00 | 0.02 | 0.01 | 95 | 999.9 |
| 20260904111511 | 60 | 199 | 0.9 | 3.5 | 0.00 | 0.02 | 0.01 | 95 | 1000.0 |
| 20260904111006 | 60 | 195 | 0.0 | 3.5 | 0.00 | 0.02 | 0.01 | 95 | 1000.1 |
| 20260904110503 | 60 | 184 | 0.9 | 4.3 | 0.00 | 0.02 | 0.01 | 95 | 1000.1 |
| 20260904110003 | 60 | 183 | 0.9 | 3.5 | 0.00 | 0.02 | 0.01 | 95 | 1000.1 |
| 20260904105502 | 60 | 177 | 0.9 | 2.6 | 0.00 | 0.02 | 0.01 | 95 | 1000.2 |
| 20260904105002 | 60 | 238 | 0.9 | 3.5 | 0.00 | 0.02 | 0.01 | 95 | 1000.2 |
| 20260904104501 | 60 | 139 | 0.0 | 3.5 | 0.00 | 0.02 | 0.01 | 94 | 1000.2 |
| 20260904104003 | 60 | 181 | 0.9 | 5.2 | 0.00 | 0.02 | 0.01 | 94 | 1000.3 |
| 20260904103500 | 60 | 164 | 0.9 | 5.2 | 0.00 | 0.02 | 0.01 | 94 | 1000.2 |
| 20260904103106 | 60 | 159 | 0.0 | 3.5 | 0.00 | 0.02 | 0.01 | 94 | 1000.4 |
| 20260904102559 | 60 | 304 | 0.9 | 5.2 | 0.00 | 0.02 | 0.01 | 94 | 1000.4 |
| 20260904102059 | 60 | 180 | 0.9 | 6.1 | 0.00 | 0.02 | 0.01 | 94 | 1000.4 |
| 20260904101559 | 60 | 221 | 0.9 | 6.1 | 0.00 | 0.02 | 0.01 | 94 | 1000.4 |
| 20260904101057 | 60 | 215 | 0.9 | 4.3 | 0.00 | 0.02 | 0.01 | 94 | 1000.5 |
| 20260904100556 | 60 | 182 | 0.9 | 5.2 | 0.00 | 0.02 | 0.01 | 94 | 1000.5 |
| 20260904100103 | 60 | 315 | 1.7 | 6.1 | 0.00 | 0.02 | 0.01 | 94 | 1000.7 |
| 20260904095555 | 60 | 221 | 0.9 | 5.2 | 0.00 | 0.02 | 0.01 | 94 | 1000.7 |
| 20260904095054 | 60 | 198 | 0.9 | 5.2 | 0.00 | 0.02 | 0.01 | 94 | 1000.7 |
| 20260904094553 | 59 | 188 | 1.7 | 6.1 | 0.00 | 0.02 | 0.01 | 94 | 1000.7 |
| 20260904094051 | 59 | 188 | 1.7 | 6.1 | 0.00 | 0.02 | 0.01 | 94 | 1000.7 |
| 20260904093553 | 59 | 141 | 0.0 | 4.3 | 0.00 | 0.02 | 0.01 | 94 | 1000.9 |
| 20260904093054 | 59 | 136 | 0.0 | 3.5 | 0.00 | 0.02 | 0.01 | 94 | 1001.0 |
| 20260904092548 | 59 | 199 | 0.9 | 3.5 | 0.00 | 0.02 | 0.01 | 94 | 1001.1 |
| 20260904092048 | 59 | 180 | 0.0 | 3.5 | 0.00 | 0.02 | 0.01 | 94 | 1001.1 |
| 20260904091549 | 59 | 302 | 0.0 | 3.5 | 0.00 | 0.02 | 0.01 | 94 | 1001.2 |
| 20260904091047 | 59 | 302 | 0.9 | 5.2 | 0.00 | 0.02 | 0.01 | 94 | 1001.4 |
| 20260904090545 | 59 | 182 | 0.9 | 5.2 | 0.00 | 0.02 | 0.01 | 94 | 1001.4 |
| 20260904090051 | 59 | 311 | 1.7 | 6.1 | 0.00 | 0.02 | 0.01 | 94 | 1001.6 |
| 20260904085543 | 59 | 196 | 1.7 | 5.2 | 0.00 | 0.02 | 0.01 | 94 | 1001.7 |
| 20260904085046 | 59 | 190 | 1.7 | 5.2 | 0.00 | 0.02 | 0.01 | 94 | 1001.8 |
| 20260904084542 | 59 | 170 | 1.7 | 5.2 | 0.00 | 0.02 | 0.01 | 94 | 1001.8 |
| 20260904084042 | 59 | 252 | 0.9 | 4.3 | 0.00 | 0.02 | 0.01 | 94 | 1001.9 |